Grand Junction, CO

1:20 PM MDT on October 22, 2019 (GMT -0600)
Walker

Weather History for KGJT - May, 2019

Change the Weather History Date:

Saturday, May 18, 2019

  Actual Average Record
Temperature  
Mean Temperature 52 °F 62 °F  
Max Temperature 63 °F 77 °F 92 °F (2006)
Min Temperature 41 °F 48 °F 36 °F (1983)
Degree Days  
Heating Degree Days 13 4  
Month to date heating degree days 146 116  
Since 1 July heating degree days 5543 5550  
Cooling Degree Days 0 2  
Month to date cooling degree days 11 16  
Year to date cooling degree days 12 19  
Growing Degree Days 2 (Base 50)    
Moisture  
Dew Point 34 °F    
Average Humidity 56    
Maximum Humidity 86    
Minimum Humidity 25    
Precipitation  
Precipitation 0.01 in 0.03 in 0.44 in (1988)
Month to date precipitation 0.15 0.56  
Year to date precipitation 5.20 3.51  
Snow  
Snow 0.00 in 0.00 in T in (2017)
Month to date snowfall 0.0 0.1  
Since 1 July snowfall 17.4 19.1  
Snow Depth 0.00 in    
Sea Level Pressure  
Sea Level Pressure 29.79 in    
Wind  
Wind Speed 10 mph (SE)    
Max Wind Speed 28 mph    
Max Gust Speed 34 mph    
Visibility 10 miles    
Events      
T = Trace of Precipitation, MM = Missing Value Source: NWS Daily Summary

Daily Weather History Graph

Daily Weather History Graph

Search for Another Location

Airport or City:

Astronomy

May. 18, 2019 Rise Set
Actual Time 5:58 AM MDT 8:22 PM MDT
Civil Twilight 5:28 AM MDT 8:53 PM MDT
Nautical Twilight 4:50 AM MDT 9:31 PM MDT
Astronomical Twilight 4:09 AM MDT 10:12 PM MDT
Moon 8:22 PM MDT (5/18) 6:06 AM MDT (5/18)
Length of Visible Light 15h 25m
Length of Day
14h 24m
Full, 100% of the Moon is Illuminated
May 18
Full
May 18
Full
May 26
Last Quarter
Jun 3
New
Jun 10
First Quarter

Hourly Weather History & Observations

Time (MDT) Temp. Windchill Dew Point Humidity Pressure Visibility Wind Dir Wind Speed Gust Speed Precip Events Conditions
12:53 AM 48.9 °F - 33.1 °F 54% 29.72 in 10.0 mi ESE 5.8 mph - N/A   Overcast
1:53 AM 46.9 °F - 35.1 °F 63% 29.75 in 10.0 mi North 13.8 mph - 0.00 in   Overcast
2:53 AM 45.0 °F 38.9 °F 37.0 °F 74% 29.74 in 10.0 mi NE 12.7 mph - 0.01 in   Overcast
3:53 AM 46.0 °F 43.1 °F 36.0 °F 68% 29.75 in 10.0 mi SSE 5.8 mph - 0.00 in   Overcast
4:53 AM 43.0 °F 38.8 °F 37.9 °F 82% 29.76 in 10.0 mi ESE 6.9 mph - N/A   Scattered Clouds
5:53 AM 41.0 °F 38.0 °F 37.0 °F 86% 29.78 in 10.0 mi ESE 4.6 mph - N/A   Mostly Cloudy
6:53 AM 43.0 °F 37.7 °F 37.0 °F 80% 29.81 in 10.0 mi SSE 9.2 mph - N/A   Overcast
7:53 AM 45.0 °F 40.1 °F 37.9 °F 76% 29.81 in 10.0 mi SE 9.2 mph - N/A   Overcast
8:53 AM 48.0 °F - 37.9 °F 68% 29.83 in 10.0 mi ESE 9.2 mph - N/A   Scattered Clouds
9:53 AM 51.1 °F - 36.0 °F 56% 29.82 in 10.0 mi Calm Calm - N/A   Mostly Cloudy
10:53 AM 53.1 °F - 34.0 °F 48% 29.83 in 10.0 mi SE 3.5 mph - N/A   Partly Cloudy
11:53 AM 57.0 °F - 34.0 °F 42% 29.80 in 10.0 mi South 4.6 mph - N/A   Clear
12:53 PM 59.0 °F - 30.9 °F 35% 29.78 in 10.0 mi WNW 5.8 mph - N/A   Mostly Cloudy
1:53 PM 59.0 °F - 33.1 °F 38% 29.79 in 10.0 mi North 8.1 mph 18.4 mph N/A   Partly Cloudy
2:53 PM 62.1 °F - 32.0 °F 32% 29.78 in 10.0 mi NW 9.2 mph 19.6 mph N/A   Partly Cloudy
3:53 PM 62.1 °F - 30.0 °F 30% 29.78 in 10.0 mi NNW 6.9 mph - N/A   Mostly Cloudy
4:53 PM 62.1 °F - 28.9 °F 29% 29.79 in 10.0 mi WSW 11.5 mph 24.2 mph N/A   Scattered Clouds
5:53 PM 62.1 °F - 27.0 °F 26% 29.77 in 10.0 mi NW 6.9 mph - N/A   Clear
6:53 PM 62.1 °F - 27.0 °F 26% 29.77 in 10.0 mi Calm Calm - N/A   Clear
7:53 PM 57.0 °F - 34.0 °F 42% 29.79 in 10.0 mi SSE 18.4 mph - N/A   Clear
8:53 PM 54.0 °F - 35.1 °F 49% 29.81 in 10.0 mi SSE 19.6 mph 28.8 mph N/A   Clear
9:53 PM 52.0 °F - 36.0 °F 54% 29.81 in 10.0 mi SSE 18.4 mph 27.6 mph N/A   Clear
10:53 PM 50.0 °F - 35.1 °F 57% 29.83 in 10.0 mi ESE 17.3 mph 26.5 mph N/A   Clear
11:53 PM 48.9 °F - 35.1 °F 59% 29.82 in 10.0 mi ESE 17.3 mph - N/A   Clear